Location: Unnamed
(23.5608°S, 46.6833°W)
Time: 15:10:19
(UTC-03:00)

VELOX 1 - Pass Details

Date: 02 April 2023
Orbit: 617 x 630 km, 98.4° (Epoch: 01 June)

Event Time Altitude Azimuth Distance (km) Brightness Sun altitude
Rises 05:29:52 0° 146° (SE) 2,946 ? -11.2°
Reaches altitude 10° 05:32:40 10° 128° (SE) 2,029 ? -10.6°
Maximum altitude 05:35:47 19° 83° (E) 1,519 ? -9.9°
Drops below altitude 10° 05:38:52 10° 38° (NE) 2,007 ? -9.2°
Sets 05:41:36 0° 19° (NNE) 2,903 ? -8.6°
